User: anonymous   Login
Location: ??
(34.9170°N, 135.5016°E)
Time: 02:27:18
(UTC+00:00)
Language:

Cosmos 2098 Rocket - Orbit

View from above orbital plane
View from above orbital plane
View from above satellite
View from above satellite

Ground track
Ground track

The orbit data is extracted from the following two-line orbital elements,

1 20775U 90078B   21015.53317283  .00001353  00000-0  65531-4 0  9992
2 20775  82.9255  51.6459 0568827 257.2758  96.4306 14.35182481536151
Epoch (UTC): 15 January 2021 12:47:46
Eccentricity: 0.0568827
inclination: 82.9255°
perigee height: 367 km
apogee height: 1181 km
right ascension of ascending node: 51.6459°
argument of perigee: 257.2758°
revolutions per day: 14.35182481
mean anomaly at epoch: 96.4306°
orbit number at epoch: 53615

The dashed part of the orbit path shows where the satellite is in the earth's shadow,  

DLR